Location: Quedlinburg
(51.7921°N, 11.1414°E)
Time: 05:21:08
(UTC+02:00)

STRAND 1 - Pass Details

Date: 20 March 2026
Orbit: 761 x 775 km, 98.4° (Epoch: 16 April)

Event Time Altitude Azimuth Distance (km) Brightness Sun altitude
Rises 04:39:49 0° 152° (SSE) 3,234 ? -15.8°
Reaches altitude 10° 04:42:08 10° 150° (SSE) 2,310 ? -15.4°
Maximum altitude 04:47:09 63° 70° (ENE) 859 ? -14.7°
Drops below altitude 10° 04:52:12 10° 350° (N) 2,317 ? -14.0°
Sets 04:54:31 0° 348° (NNW) 3,246 ? -13.6°
